{"data":{"norad_id":66482,"epoch":"2026-09-20T01:21:03.466368Z","epoch_age_seconds":127596,"freshness":"FRESH","line1":"1 66482U 25262AC  26263.05629012  .00012004  00000+0  44495-3 0  9992","line2":"2 66482  42.9999 278.3630 0001034 258.9269 101.1467 15.27586598 48477","mean_motion":15.27586598,"eccentricity":0.0001034,"inclination_deg":42.9999,"raan_deg":278.363,"arg_perigee_deg":258.9269,"mean_anomaly_deg":101.1467,"bstar":0.00044495,"rev_number":4847,"period_min":94.266341553751,"perigee_km":482.31989472566,"apogee_km":483.73878392463,"semimajor_km":6861.1663393251,"source":"CELESTRAK","updated_at":"2026-09-21T09:00:35.917792Z"}}